Flag for Russia Weather past 2 weeks in Kemerovo, Russia

Now
27 °F

Mostly cloudy.


Feels Like: 18 °F
Forecast: 19 / 25 °F
Wind: 8 mph from South

Location: Kemerovo

Current Time: Dec 23, 2014 at 1:54:15 AM

Latest Report: Dec 23, 2014 at 1:30 AM


Visibility: N/A

Pressure: 30.24 "Hg

Humidity: 86%

Dew point: 23 °F

Location of KemerovoLocation

Historic Weather in Kemerovo — Graph

°F

Kemerovo temperature yesterday

Maximum temperature yesterday: 27 °F (at 5:00 PM)
Minimum temperature yesterday: 19 °F (at 12:00 AM)
Average temperature yesterday: 23 °F

Past Weeks' High & Low Weather Summary

 TemperatureHumidityPressure
High27 °F (Dec 22, 5:00 PM)100% (Dec 8, 12:00 AM)30.89 "Hg (Dec 8, 12:00 AM)
Low-8 °F (Dec 14, 8:00 AM)56% (Dec 16, 4:00 AM)30.12 "Hg (Dec 8, 12:00 AM)
Average10 °F90%30.47 "Hg
* Reported Midnight between Dec 7 and Dec 8 — Dec 23 12:30 AM, Kemerovo, Weather by CustomWeather, © 2014

Note: Actual official high and low records may vary slightly from our data, if they occured in-between our weather recording intervals... More about our weather records

Advertising

Kemerovo weather history for previous 24 hours

 ConditionsComfort  
Time TempWeatherWind HumidityBarometerVisibility
12:30 AM
Dec 23
25 °FMostly cloudy.8 mph93%30.24 "HgN/A
12:00 AM25 °FMostly cloudy.8 mph93%30.24 "HgN/A
11:30 PM
Dec 22
25 °FMostly cloudy.8 mph93%30.24 "HgN/A
11:00 PM25 °FMostly cloudy.8 mph93%30.24 "HgN/A
10:30 PM25 °FMostly cloudy.10 mph93%30.24 "HgN/A
10:00 PM25 °FMostly cloudy.10 mph93%30.24 "HgN/A
9:30 PM27 °FMostly cloudy.10 mph93%30.21 "HgN/A
9:00 PM27 °FSnow flurries. Mostly cloudy.8 mph93%30.21 "HgN/A
8:30 PM27 °FSnow flurries. Mostly cloudy.8 mph100%30.21 "HgN/A
8:00 PM27 °FOvercast.8 mph100%30.21 "HgN/A
7:30 PM27 °FMostly cloudy.8 mph93%30.21 "HgN/A
7:00 PM27 °FMostly cloudy.10 mph93%30.21 "HgN/A
6:30 PM27 °FMostly cloudy.13 mph86%30.18 "HgN/A
6:00 PM27 °FMostly cloudy.10 mph86%30.18 "HgN/A
5:30 PM27 °FMore clouds than sun.10 mph86%30.18 "HgN/A
5:00 PM27 °FMore clouds than sun.10 mph86%30.18 "HgN/A
4:30 PM25 °FMore clouds than sun.13 mph93%30.18 "HgN/A
4:00 PM25 °FOvercast.10 mph93%30.15 "HgN/A
3:30 PM23 °FSnow flurries. Overcast.10 mph86%30.15 "HgN/A
3:00 PM25 °FSnow flurries. Overcast.13 mph93%30.15 "HgN/A
2:30 PM23 °FOvercast.10 mph86%30.15 "HgN/A
2:00 PM23 °FMore clouds than sun.13 mph86%30.15 "HgN/A
1:30 PM21 °FMore clouds than sun.8 mph86%30.15 "HgN/A
1:00 PM21 °FMore clouds than sun.13 mph86%30.15 "HgN/A
12:30 PM21 °FMore clouds than sun.10 mph86%30.15 "HgN/A
12:00 PM21 °FMore clouds than sun.8 mph86%30.15 "HgN/A
11:30 AM19 °FMore clouds than sun.8 mph86%30.15 "HgN/A
10:30 AM19 °FClear.8 mph86%30.15 "Hg10 mi
10:00 AM19 °FClear.10 mph86%30.15 "Hg10 mi
9:30 AM21 °FClear.10 mph93%30.15 "Hg10 mi
9:00 AM21 °FClear.8 mph93%30.15 "Hg10 mi
8:30 AM23 °FMostly cloudy.8 mph93%30.12 "HgN/A
8:00 AM23 °FMostly cloudy.8 mph93%30.12 "HgN/A
7:00 AM23 °FOvercast.10 mph93%30.15 "HgN/A
6:30 AM21 °FOvercast.10 mph100%30.15 "HgN/A
6:00 AM21 °FOvercast.10 mph100%30.15 "HgN/A
5:30 AM21 °FOvercast.6 mph100%30.15 "Hg4 mi
4:30 AM21 °FOvercast.8 mph100%30.15 "Hg4 mi
4:00 AM21 °FOvercast.6 mph100%30.18 "HgN/A
3:30 AM21 °FOvercast.8 mph93%30.18 "HgN/A
3:00 AM21 °FOvercast.6 mph93%30.18 "HgN/A
2:30 AM19 °FOvercast.8 mph93%30.18 "Hg4 mi
2:00 AM19 °FOvercast.8 mph93%30.18 "Hg4 mi
1:30 AM19 °FOvercast.6 mph93%30.18 "Hg4 mi
1:00 AM19 °FMostly cloudy.6 mph93%30.18 "Hg4 mi
Weather by CustomWeather, © 2014

See weather overviewHow to use our weather pages